This demonstration page uses our WeatherBlox Daily Observations layout. Learn more.

Left ArrowRight Arrow

41.86663, -103.66717

Hourly Observations for August 16, 2022

Temp ( °F °C ) Dew Point ( °F °C ) Humidity (%) Winds ( mph kmh ) Pressure ( in mb ) Visibility ( mi km ) Precip ( " mm )
12:53 am 00:53 Clear 63 17.2 60 15.6 90 90 VRB 3 6 30.02 1017 10 16 0.00 0.00
1:53 am 01:53 Clear 63 17.2 60 15.6 90 90 NW 3 6 30.01 1016 10 16 0.00 0.00
2:10 am 02:10 Mostly Cloudy 63 17.2 59 15 87 87 Calm 30.00 1016 10 16 0.00 0.00
2:38 am 02:38 Mostly Cloudy 63 17.2 60 15.6 90 90 Calm 30.00 1016 10 16 0.00 0.00
2:53 am 02:53 Cloudy 63 17.2 60 15.6 90 90 NNE 5 7 30.00 1016 10 16 0.00 0.00
3:20 am 03:20 Cloudy 63 17.2 60 15.6 90 90 N 7 11 30.00 1016 10 16 0.00 0.00
3:35 am 03:35 Mostly Cloudy 63 17.2 59 15 87 87 N 5 7 30.00 1016 10 16 0.00 0.00
3:53 am 03:53 Mostly Cloudy 62 16.7 59 15 90 90 N 5 7 30.01 1016 9 14 0.00 0.00
4:09 am 04:09 Mostly Clear 61 16.1 58 14.4 90 90 NNE 3 6 30.01 1016 9 14 0.00 0.00
4:53 am 04:53 Clear 60 15.6 58 14.4 93 93 NW 6 9 30.01 1016 7 11 0.00 0.00
5:53 am 05:53 Clear with Mist and Fog 59 15 57 13.9 93 93 Calm 30.03 1017 4 6 0.00 0.00
6:53 am 06:53 Sunny with Mist and Fog 62 16.7 59 15 90 90 Calm 30.05 1018 6 10 0.00 0.00
7:53 am 07:53 Sunny 64 17.8 60 15.6 87 87 Calm 30.07 1018 8 13 0.00 0.00
8:53 am 08:53 Mostly Sunny 69 20.6 61 16.1 75 75 Calm 30.08 1019 9 14 0.00 0.00
9:24 am 09:24 Mostly Cloudy 70 21.1 62 16.7 76 76 VRB 5 7 30.00 1016 10 16 0.00 0.00
9:40 am 09:40 Mostly Cloudy 70 21.1 62 16.7 76 76 VRB 6 9 30.00 1016 10 16 0.00 0.00
9:53 am 09:53 Mostly Cloudy 71 21.7 62 16.7 73 73 undefined N/A 30.08 1019 10 16 0.00 0.00
10:16 am 10:16 Partly Cloudy 72 22.2 62 16.7 71 71 VRB 5 7 29.98 1015 10 16 0.00 0.00
10:53 am 10:53 Mostly Cloudy 76 24.4 63 17.2 64 64 VRB 3 6 30.06 1018 10 16 0.00 0.00
11:04 am 11:04 Partly Cloudy 77 25 63 17.2 62 62 VRB 6 9 29.94 1014 10 16 0.00 0.00
11:53 am 11:53 Sunny 79 26.1 60 15.6 52 52 VRB 6 9 30.06 1018 10 16 0.00 0.00
12:53 pm 12:53 Sunny 82 27.8 59 15 46 46 ESE 6 9 30.05 1018 10 16 0.00 0.00
1:53 pm 13:53 Sunny 84 28.9 55 12.8 37 37 E 9 15 30.04 1017 10 16 0.00 0.00
2:53 pm 14:53 Sunny 83 28.3 54 12.2 37 37 ESE 9 15 30.03 1017 10 16 0.00 0.00
3:53 pm 15:53 Sunny 86 30 53 11.7 32 32 E 9 15 30.01 1016 10 16 0.00 0.00
4:53 pm 16:53 Sunny 86 30 52 11.1 31 31 ESE 12 19 30.01 1016 10 16 0.00 0.00
5:53 pm 17:53 Partly Cloudy 86 30 54 12.2 33 33 E 8 13 30.01 1016 10 16 0.00 0.00
6:53 pm 18:53 Sunny 81 27.2 54 12.2 39 39 E 6 9 30.01 1016 10 16 0.00 0.00
7:53 pm 19:53 Sunny 73 22.8 58 14.4 59 59 ENE 7 11 30.04 1017 10 16 0.00 0.00
8:53 pm 20:53 Clear 71 21.7 56 13.3 59 59 ESE 9 15 30.05 1018 10 16 0.00 0.00
9:53 pm 21:53 Clear 69 20.6 59 15 70 70 ESE 12 19 30.07 1018 10 16 0.00 0.00
10:53 pm 22:53 Clear 65 18.3 58 14.4 78 78 ESE 8 13 30.07 1018 10 16 0.00 0.00
11:53 pm 23:53 Clear 63 17.2 58 14.4 84 84 E 9 15 30.09 1019 10 16 0.00 0.00

Powered by AerisWeather